Regional Weather Roundup
Issued by NWS

Home | Current Version | Previous Version | Graphics & Text | Print | Product List | Glossary Off
Versions: 1 2 3 4 5 6 7 8 9 10 11 12 13 14 15 16 17 18 19 20 21 22 23 24 25 26 27 28 29 30 31 32 33 34 35 36 37 38 39 40 41 42 43 44 45 46 47 48 49 50

000
ASUS43 KFSD 280010
RWRSD

WEATHER ROUNDUP FOR SOUTH DAKOTA
NATIONAL WEATHER SERVICE SIOUX FALLS SD
600 PM CST SAT DEC 27 2014

NOTE: "FAIR" INDICATES FEW OR NO CLOUDS BELOW 12,000 FEET WITH NO
SIGNIFICANT WEATHER AND/OR OBSTRUCTIONS TO VISIBILITY.


SDZ001>005-009-010-012>017-280100-
NORTHWEST AND NORTH CENTRAL SOUTH DAKOTA

CITY           SKY/WX    TMP DP  RH WIND       PRES   REMARKS
BUFFALO          N/A     23  15  71 W13       29.94S WCI  11
FAITH            N/A     23  15  71 W6        30.02R WCI  16
MOBRIDGE       MOCLDY    27  18  69 SW6       30.00S WCI  20
$$

SDZ012>016-024>037-041>051-057-063-072>074-280100-
SOUTHWEST AND SOUTH CENTRAL SOUTH DAKOTA

CITY           SKY/WX    TMP DP  RH WIND       PRES   REMARKS
RAPID CTY ARPT MOCLDY    20  14  77 W6        30.04R WCI  12
PIERRE         PTCLDY    21  16  81 SW10      30.07R WCI  10
CUSTER         PTCLDY    15   7  70 W7        29.93R WCI   5
ELLSWORTH AFB  CLOUDY    23  15  71 NW2       30.03R
PHILIP         PTCLDY    18  13  80 W7        30.07R WCI   9
PINE RIDGE     CLEAR     12   5  73 SW5       30.06S WCI   4
SPEARFISH      CLOUDY    23  10  58 W8        30.02R WCI  14
WINNER         FAIR      19  10  68 SW9       30.10F WCI   8
$$

SDZ004>011-016>023-039-040-280100-
NORTHEAST SOUTH DAKOTA

CITY           SKY/WX    TMP DP  RH WIND       PRES   REMARKS
ABERDEEN       PTCLDY    21  15  78 SW8       30.07S WCI  11
WATERTOWN      CLEAR      8   4  83 SW9       30.07R WCI  -5
SISSETON         N/A     22  16  78 W18       30.04F WCI   7
$$

SDZ017-020-022-023-036>040-048>070-280100-
SOUTHEAST SOUTH DAKOTA

CITY           SKY/WX    TMP DP  RH WIND       PRES   REMARKS
SIOUX FALLS    CLEAR     13   9  84 SW7       30.15S WCI   3
HURON          CLEAR     15   9  76 SW9       30.12S WCI   3
CHAMBERLAIN    CLEAR     12  10  92 SW5       30.11S WCI   4
MITCHELL       CLEAR     16  11  80 S8        30.15S WCI   5
YANKTON        CLEAR     18  12  79 S5        30.20S WCI  11
$$

ABBREVIATIONS USED IN REMARKS
   TC - TEMPERATURE IN CELSIUS
  WCI - WIND CHILL INDEX
   HX - HEAT INDEX
  VSB - VISIBILITY



USA.gov is the U.S. government's official web portal to all federal, state and local government web resources and services.